• In Austria
  • List of Countries
  • For 7 days
  • Water Temperature
  • Satellite Maps
  • Weather Map
  • News
  • Weather Widgets
  • user-avatar
    Login

    Hourly Weather Chinsali

    Today, 18 August, Saturday

    Time Temperature Precipitation Wind Pressure Humidity
    00:00 +16°C° 0 mm 2 mps 647 mmHg 53%
    01:00 +15°C° 0 mm 2 mps 647 mmHg 58%
    02:00 +14°C° 0 mm 2 mps 647 mmHg 63%
    03:00 +14°C° 0 mm 2 mps 646 mmHg 66%
    04:00 +13°C° 0 mm 2 mps 646 mmHg 69%
    05:00 +13°C° 0 mm 2 mps 646 mmHg 71%
    06:00 +15°C° 0 mm 2 mps 647 mmHg 64%
    07:00 +17°C° 0 mm 2 mps 648 mmHg 57%
    08:00 +19°C° 0 mm 2 mps 649 mmHg 50%
    09:00 +21°C° 0 mm 2 mps 649 mmHg 40%
    10:00 +25°C° 0 mm 3 mps 650 mmHg 31%
    11:00 +28°C° 0 mm 3 mps 650 mmHg 22%
    12:00 +29°C° 0 mm 3 mps 650 mmHg 20%
    13:00 +30°C° 0 mm 3 mps 649 mmHg 18%
    14:00 +30°C° 0 mm 3 mps 649 mmHg 16%
    15:00 +30°C° 0 mm 3 mps 648 mmHg 18%
    16:00 +29°C° 0 mm 3 mps 648 mmHg 20%
    17:00 +28°C° 0 mm 3 mps 648 mmHg 22%
    18:00 +26°C° 0 mm 3 mps 648 mmHg 26%
    19:00 +24°C° 0 mm 3 mps 648 mmHg 30%
    20:00 +21°C° 0 mm 4 mps 648 mmHg 34%
    21:00 +20°C° 0 mm 3 mps 648 mmHg 39%
    22:00 +19°C° 0 mm 3 mps 648 mmHg 43%
    23:00 +18°C° 0 mm 3 mps 648 mmHg 48%

    Tomorrow, 19 August, Sunday

    Time Temperature Precipitation Wind Pressure Humidity
    00:00 +18°C° 0 mm 3 mps 648 mmHg 51%
    01:00 +17°C° 0 mm 3 mps 648 mmHg 55%
    02:00 +16°C° 0 mm 3 mps 647 mmHg 58%
    03:00 +16°C° 0 mm 3 mps 647 mmHg 61%
    04:00 +15°C° 0 mm 2 mps 647 mmHg 63%
    05:00 +15°C° 0 mm 2 mps 647 mmHg 65%
    06:00 +17°C° 0 mm 3 mps 648 mmHg 58%
    07:00 +19°C° 0 mm 4 mps 649 mmHg 50%
    08:00 +20°C° 0 mm 4 mps 650 mmHg 42%
    09:00 +22°C° 0 mm 4 mps 650 mmHg 36%
    10:00 +25°C° 0 mm 4 mps 650 mmHg 31%
    11:00 +27°C° 0 mm 5 mps 651 mmHg 25%
    12:00 +28°C° 0 mm 4 mps 650 mmHg 23%
    13:00 +29°C° 0 mm 4 mps 650 mmHg 21%
    14:00 +30°C° 0 mm 4 mps 649 mmHg 19%
    15:00 +29°C° 0 mm 4 mps 649 mmHg 20%
    16:00 +28°C° 0 mm 3 mps 648 mmHg 21%
    17:00 +28°C° 0 mm 3 mps 648 mmHg 23%
    18:00 +26°C° 0 mm 4 mps 648 mmHg 26%
    19:00 +23°C° 0 mm 4 mps 648 mmHg 29%
    20:00 +21°C° 0 mm 4 mps 648 mmHg 32%
    21:00 +20°C° 0 mm 4 mps 648 mmHg 37%
    22:00 +19°C° 0 mm 4 mps 649 mmHg 42%
    23:00 +18°C° 0 mm 4 mps 649 mmHg 47%

    Day after tomorrow, 20 August, Monday

    Time Temperature Precipitation Wind Pressure Humidity
    00:00 +18°C° 0 mm 3 mps 648 mmHg 51%
    01:00 +17°C° 0 mm 3 mps 648 mmHg 55%
    02:00 +16°C° 0 mm 3 mps 647 mmHg 58%
    03:00 +16°C° 0 mm 3 mps 647 mmHg 60%
    04:00 +16°C° 0 mm 3 mps 647 mmHg 62%
    05:00 +14°C° 0 mm 3 mps 647 mmHg 65%
    06:00 +16°C° 0 mm 3 mps 648 mmHg 61%
    07:00 +18°C° 0 mm 4 mps 649 mmHg 57%
    08:00 +19°C° 0 mm 4 mps 649 mmHg 54%
    09:00 +21°C° 0 mm 4 mps 650 mmHg 46%
    10:00 +25°C° 0 mm 4 mps 650 mmHg 38%
    11:00 +27°C° 0 mm 3 mps 651 mmHg 29%
    12:00 +28°C° 0 mm 3 mps 650 mmHg 26%
    13:00 +29°C° 0 mm 3 mps 650 mmHg 23%
    14:00 +31°C° 0 mm 2 mps 649 mmHg 19%
    15:00 +30°C° 0 mm 2 mps 648 mmHg 20%
    16:00 +29°C° 0 mm 2 mps 648 mmHg 21%
    17:00 +28°C° 0 mm 2 mps 647 mmHg 22%
    18:00 +26°C° 0 mm 3 mps 647 mmHg 26%
    19:00 +24°C° 0 mm 3 mps 647 mmHg 31%
    20:00 +21°C° 0 mm 3 mps 647 mmHg 35%
    21:00 +20°C° 0 mm 3 mps 648 mmHg 40%
    22:00 +19°C° 0 mm 3 mps 648 mmHg 45%
    23:00 +18°C° 0 mm 3 mps 648 mmHg 50%

    21 August, Tuesday

    Time Temperature Precipitation Wind Pressure Humidity
    00:00 +18°C° 0 mm 3 mps 647 mmHg 55%
    01:00 +17°C° 0 mm 2 mps 647 mmHg 59%
    02:00 +16°C° 0 mm 2 mps 646 mmHg 63%
    03:00 +15°C° 0 mm 2 mps 646 mmHg 65%
    04:00 +15°C° 0 mm 1 mps 646 mmHg 68%
    05:00 +14°C° 0 mm 1 mps 646 mmHg 70%
    06:00 +16°C° 0 mm 2 mps 647 mmHg 63%
    07:00 +18°C° 0 mm 2 mps 648 mmHg 55%
    08:00 +20°C° 0 mm 2 mps 649 mmHg 48%
    09:00 +23°C° 0 mm 2 mps 650 mmHg 41%
    10:00 +26°C° 0 mm 3 mps 650 mmHg 33%
    11:00 +28°C° 0 mm 3 mps 651 mmHg 26%
    12:00 +30°C° 0 mm 2 mps 650 mmHg 23%
    13:00 +33°C° 0 mm 1 mps 650 mmHg 20%
    14:00 +33°C° 0 mm 0 mps 650 mmHg 17%
    15:00 +33°C° 0 mm 1 mps 649 mmHg 19%
    16:00 +31°C° 0 mm 1 mps 648 mmHg 20%
    17:00 +29°C° 0 mm 1 mps 648 mmHg 21%
    18:00 +27°C° 0 mm 1 mps 648 mmHg 25%
    19:00 +25°C° 0 mm 2 mps 647 mmHg 28%
    20:00 +21°C° 0 mm 2 mps 647 mmHg 31%
    21:00 +21°C° 0 mm 2 mps 647 mmHg 36%
    22:00 +20°C° 0 mm 3 mps 648 mmHg 41%
    23:00 +19°C° 0 mm 3 mps 648 mmHg 46%

    22 August, Wednesday

    Time Temperature Precipitation Wind Pressure Humidity
    00:00 +18°C° 0 mm 3 mps 647 mmHg 50%
    01:00 +18°C° 0 mm 2 mps 646 mmHg 53%
    02:00 +17°C° 0 mm 2 mps 646 mmHg 57%
    03:00 +16°C° 0 mm 2 mps 646 mmHg 60%
    04:00 +16°C° 0 mm 1 mps 646 mmHg 63%
    05:00 +15°C° 0 mm 1 mps 646 mmHg 65%
    06:00 +18°C° 0 mm 1 mps 647 mmHg 59%
    07:00 +19°C° 0 mm 2 mps 648 mmHg 53%
    08:00 +21°C° 0 mm 2 mps 649 mmHg 46%
    09:00 +25°C° 0 mm 2 mps 649 mmHg 39%
    10:00 +27°C° 0 mm 2 mps 650 mmHg 32%
    11:00 +30°C° 0 mm 2 mps 650 mmHg 24%
    12:00 +32°C° 0 mm 2 mps 650 mmHg 22%
    13:00 +34°C° 0 mm 1 mps 650 mmHg 19%
    14:00 +36°C° 0 mm 1 mps 649 mmHg 16%
    15:00 +34°C° 0 mm 1 mps 649 mmHg 18%
    16:00 +32°C° 0 mm 1 mps 648 mmHg 19%
    17:00 +31°C° 0 mm 1 mps 647 mmHg 20%
    18:00 +29°C° 0 mm 1 mps 647 mmHg 23%
    19:00 +26°C° 0 mm 2 mps 647 mmHg 26%
    20:00 +24°C° 0 mm 2 mps 647 mmHg 29%
    21:00 +22°C° 0 mm 3 mps 647 mmHg 32%
    22:00 +22°C° 0 mm 3 mps 647 mmHg 34%
    23:00 +21°C° 0 mm 3 mps 647 mmHg 37%

    23 August, Thursday

    Time Temperature Precipitation Wind Pressure Humidity
    00:00 +20°C° 0 mm 3 mps 647 mmHg 41%
    01:00 +19°C° 0 mm 2 mps 646 mmHg 46%
    02:00 +18°C° 0 mm 2 mps 646 mmHg 50%
    03:00 +18°C° 0 mm 2 mps 646 mmHg 53%
    04:00 +18°C° 0 mm 1 mps 646 mmHg 57%
    05:00 +16°C° 0 mm 1 mps 646 mmHg 60%
    06:00 +19°C° 0 mm 1 mps 647 mmHg 56%
    07:00 +20°C° 0 mm 2 mps 648 mmHg 51%
    08:00 +23°C° 0 mm 2 mps 649 mmHg 46%
    09:00 +26°C° 0 mm 2 mps 649 mmHg 38%
    10:00 +29°C° 0 mm 2 mps 649 mmHg 31%
    11:00 +31°C° 0 mm 2 mps 650 mmHg 23%
    12:00 +32°C° 0 mm 2 mps 649 mmHg 20%
    13:00 +35°C° 0 mm 2 mps 648 mmHg 18%
    14:00 +36°C° 0 mm 2 mps 648 mmHg 15%
    15:00 +35°C° 0 mm 2 mps 647 mmHg 16%
    16:00 +32°C° 0 mm 2 mps 647 mmHg 17%
    17:00 +31°C° 0 mm 3 mps 646 mmHg 18%
    18:00 +29°C° 0 mm 3 mps 646 mmHg 20%
    19:00 +27°C° 0 mm 3 mps 646 mmHg 22%
    20:00 +25°C° 0 mm 3 mps 646 mmHg 24%
    21:00 +24°C° 0 mm 3 mps 646 mmHg 27%
    22:00 +22°C° 0 mm 3 mps 646 mmHg 30%
    23:00 +21°C° 0 mm 4 mps 646 mmHg 34%
    Show more